When you browse on this site, cookies collect data to enhance your experience and personalize the content and advertising you see.
Visit our Privacy Policy to learn more. By continuing to use the site, you agree to this use of cookies and data.
  • In Hungary
  • List of Countries
  • For 7 days
  • Water Temperature
  • Weather Map
  • News
  • Weather Widgets
  • user-avatar
    Login

    Hourly Weather Nakhon Ratchasima

    Today, 9 December, Monday

    Time Temperature Precipitation Wind Pressure Humidity
    00:00 +16°C° 0 mm 2 mps 745 mmHg 68%
    01:00 +15°C° 0 mm 2 mps 745 mmHg 70%
    02:00 +14°C° 0 mm 2 mps 745 mmHg 72%
    03:00 +14°C° 0 mm 2 mps 744 mmHg 75%
    04:00 +13°C° 0 mm 2 mps 744 mmHg 77%
    05:00 +13°C° 0 mm 2 mps 745 mmHg 77%
    06:00 +13°C° 0 mm 2 mps 745 mmHg 77%
    07:00 +14°C° 0 mm 2 mps 745 mmHg 78%
    08:00 +16°C° 0 mm 3 mps 745 mmHg 71%
    09:00 +18°C° 0 mm 4 mps 746 mmHg 63%
    10:00 +20°C° 0 mm 5 mps 746 mmHg 55%
    11:00 +22°C° 0 mm 5 mps 745 mmHg 51%
    12:00 +23°C° 0 mm 5 mps 744 mmHg 47%
    13:00 +26°C° 0 mm 5 mps 743 mmHg 44%
    14:00 +26°C° 0 mm 5 mps 743 mmHg 44%
    15:00 +26°C° 0 mm 4 mps 743 mmHg 43%
    16:00 +25°C° 0 mm 4 mps 742 mmHg 43%
    17:00 +24°C° 0 mm 3 mps 742 mmHg 47%
    18:00 +21°C° 0 mm 3 mps 742 mmHg 51%
    19:00 +19°C° 0 mm 2 mps 743 mmHg 54%
    20:00 +18°C° 0 mm 2 mps 743 mmHg 56%
    21:00 +17°C° 0 mm 2 mps 743 mmHg 58%
    22:00 +17°C° 0 mm 2 mps 744 mmHg 59%
    23:00 +16°C° 0 mm 1 mps 743 mmHg 60%

    Tomorrow, 10 December, Tuesday

    Time Temperature Precipitation Wind Pressure Humidity
    00:00 +16°C° 0 mm 1 mps 743 mmHg 61%
    01:00 +15°C° 0 mm 1 mps 743 mmHg 62%
    02:00 +15°C° 0 mm 1 mps 743 mmHg 65%
    03:00 +14°C° 0 mm 1 mps 743 mmHg 68%
    04:00 +14°C° 0 mm 1 mps 742 mmHg 70%
    05:00 +14°C° 0 mm 1 mps 743 mmHg 74%
    06:00 +13°C° 0 mm 1 mps 743 mmHg 77%
    07:00 +13°C° 0 mm 1 mps 743 mmHg 81%
    08:00 +16°C° 0 mm 2 mps 744 mmHg 73%
    09:00 +18°C° 0 mm 2 mps 744 mmHg 65%
    10:00 +20°C° 0 mm 3 mps 744 mmHg 57%
    11:00 +22°C° 0 mm 3 mps 744 mmHg 52%
    12:00 +24°C° 0 mm 3 mps 743 mmHg 47%
    13:00 +26°C° 0 mm 3 mps 742 mmHg 42%
    14:00 +26°C° 0 mm 3 mps 742 mmHg 41%
    15:00 +26°C° 0 mm 3 mps 741 mmHg 40%
    16:00 +26°C° 0 mm 3 mps 740 mmHg 39%
    17:00 +24°C° 0 mm 3 mps 741 mmHg 43%
    18:00 +21°C° 0 mm 2 mps 741 mmHg 46%
    19:00 +19°C° 0 mm 2 mps 741 mmHg 49%
    20:00 +19°C° 0 mm 2 mps 741 mmHg 50%
    21:00 +19°C° 0 mm 1 mps 741 mmHg 50%
    22:00 +18°C° 0 mm 1 mps 742 mmHg 51%
    23:00 +18°C° 0 mm 1 mps 742 mmHg 53%

    Day after tomorrow, 11 December, Wednesday

    Time Temperature Precipitation Wind Pressure Humidity
    00:00 +16°C° 0 mm 1 mps 742 mmHg 55%
    01:00 +15°C° 0 mm 0 mps 742 mmHg 57%
    02:00 +15°C° 0 mm 1 mps 741 mmHg 59%
    03:00 +15°C° 0 mm 1 mps 741 mmHg 60%
    04:00 +14°C° 0 mm 1 mps 741 mmHg 61%
    05:00 +14°C° 0 mm 1 mps 742 mmHg 64%
    06:00 +14°C° 0 mm 1 mps 742 mmHg 67%
    07:00 +13°C° 0 mm 1 mps 743 mmHg 71%
    08:00 +16°C° 0 mm 2 mps 743 mmHg 66%
    09:00 +18°C° 0 mm 2 mps 744 mmHg 61%
    10:00 +21°C° 0 mm 3 mps 744 mmHg 56%
    11:00 +22°C° 0 mm 3 mps 743 mmHg 51%
    12:00 +25°C° 0 mm 3 mps 742 mmHg 46%
    13:00 +27°C° 0 mm 4 mps 742 mmHg 40%
    14:00 +27°C° 0 mm 3 mps 741 mmHg 40%
    15:00 +27°C° 0 mm 3 mps 741 mmHg 40%
    16:00 +27°C° 0 mm 3 mps 740 mmHg 40%
    17:00 +25°C° 0 mm 3 mps 740 mmHg 45%
    18:00 +23°C° 0 mm 2 mps 741 mmHg 50%
    19:00 +20°C° 0 mm 2 mps 741 mmHg 54%
    20:00 +19°C° 0 mm 2 mps 741 mmHg 53%
    21:00 +19°C° 0 mm 2 mps 742 mmHg 52%
    22:00 +18°C° 0 mm 2 mps 742 mmHg 51%
    23:00 +17°C° 0 mm 2 mps 742 mmHg 51%

    12 December, Thursday

    Time Temperature Precipitation Wind Pressure Humidity
    00:00 +18°C° 0 mm 1 mps 742 mmHg 51%
    01:00 +16°C° 0 mm 1 mps 742 mmHg 51%
    02:00 +16°C° 0 mm 1 mps 742 mmHg 54%
    03:00 +15°C° 0 mm 1 mps 741 mmHg 57%
    04:00 +15°C° 0 mm 1 mps 741 mmHg 60%
    05:00 +15°C° 0 mm 1 mps 742 mmHg 66%
    06:00 +15°C° 0 mm 1 mps 742 mmHg 73%
    07:00 +15°C° 0 mm 1 mps 743 mmHg 79%
    08:00 +17°C° 0 mm 2 mps 743 mmHg 74%
    09:00 +20°C° 0 mm 3 mps 743 mmHg 68%
    10:00 +22°C° 0 mm 4 mps 744 mmHg 63%
    11:00 +25°C° 0 mm 4 mps 743 mmHg 58%
    12:00 +26°C° 0 mm 4 mps 743 mmHg 53%
    13:00 +28°C° 0 mm 4 mps 742 mmHg 48%
    14:00 +28°C° 0 mm 4 mps 741 mmHg 48%
    15:00 +28°C° 0 mm 4 mps 741 mmHg 47%
    16:00 +29°C° 0 mm 3 mps 740 mmHg 46%
    17:00 +27°C° 0 mm 3 mps 740 mmHg 51%
    18:00 +25°C° 0 mm 2 mps 741 mmHg 57%
    19:00 +23°C° 0 mm 2 mps 741 mmHg 62%
    20:00 +21°C° 0 mm 2 mps 741 mmHg 64%
    21:00 +21°C° 0 mm 2 mps 742 mmHg 66%
    22:00 +20°C° 0 mm 2 mps 742 mmHg 68%
    23:00 +19°C° 0 mm 2 mps 742 mmHg 69%

    13 December, Friday

    Time Temperature Precipitation Wind Pressure Humidity
    00:00 +19°C° 0 mm 2 mps 742 mmHg 71%
    01:00 +19°C° 0 mm 2 mps 742 mmHg 72%
    02:00 +18°C° 0 mm 2 mps 742 mmHg 76%
    03:00 +17°C° 0 mm 2 mps 742 mmHg 80%
    04:00 +17°C° 0 mm 2 mps 742 mmHg 84%
    05:00 +17°C° 0 mm 2 mps 742 mmHg 86%
    06:00 +16°C° 0 mm 2 mps 743 mmHg 88%
    07:00 +16°C° 0 mm 2 mps 743 mmHg 89%
    08:00 +18°C° 0 mm 2 mps 744 mmHg 80%
    09:00 +21°C° 0 mm 3 mps 744 mmHg 71%
    10:00 +23°C° 0 mm 4 mps 744 mmHg 62%
    11:00 +26°C° 0 mm 4 mps 744 mmHg 56%
    12:00 +27°C° 0 mm 4 mps 743 mmHg 51%
    13:00 +29°C° 0 mm 4 mps 742 mmHg 46%
    14:00 +29°C° 0 mm 4 mps 742 mmHg 45%
    15:00 +29°C° 0 mm 4 mps 741 mmHg 44%
    16:00 +30°C° 0 mm 4 mps 741 mmHg 43%
    17:00 +28°C° 0 mm 3 mps 741 mmHg 48%
    18:00 +26°C° 0 mm 3 mps 741 mmHg 52%
    19:00 +24°C° 0 mm 2 mps 741 mmHg 56%
    20:00 +23°C° 0 mm 2 mps 742 mmHg 58%
    21:00 +21°C° 0 mm 2 mps 742 mmHg 59%
    22:00 +21°C° 0 mm 2 mps 743 mmHg 61%
    23:00 +20°C° 0 mm 2 mps 742 mmHg 62%

    14 December, Saturday

    Time Temperature Precipitation Wind Pressure Humidity
    00:00 +20°C° 0 mm 2 mps 742 mmHg 64%
    01:00 +20°C° 0 mm 1 mps 742 mmHg 65%
    02:00 +20°C° 0 mm 1 mps 742 mmHg 66%
    03:00 +18°C° 0 mm 2 mps 742 mmHg 68%
    04:00 +18°C° 0 mm 2 mps 742 mmHg 69%
    05:00 +19°C° 0 mm 1 mps 742 mmHg 72%
    06:00 +19°C° 0 mm 1 mps 743 mmHg 76%
    07:00 +19°C° 0 mm 1 mps 743 mmHg 79%
    08:00 +20°C° 0 mm 2 mps 743 mmHg 74%
    09:00 +22°C° 0 mm 3 mps 744 mmHg 68%
    10:00 +25°C° 0 mm 3 mps 744 mmHg 63%
    11:00 +27°C° 0 mm 3 mps 743 mmHg 58%
    12:00 +28°C° 0 mm 3 mps 743 mmHg 52%
    13:00 +30°C° 0 mm 3 mps 742 mmHg 47%
    14:00 +30°C° 0 mm 3 mps 741 mmHg 47%
    15:00 +30°C° 0 mm 3 mps 741 mmHg 46%
    16:00 +31°C° 0 mm 3 mps 740 mmHg 46%
    17:00 +29°C° 0 mm 3 mps 741 mmHg 50%
    18:00 +27°C° 0 mm 3 mps 741 mmHg 55%
    19:00 +25°C° 0 mm 2 mps 741 mmHg 60%
    20:00 +25°C° 0 mm 2 mps 741 mmHg 61%
    21:00 +24°C° 0 mm 2 mps 742 mmHg 61%
    22:00 +23°C° 0 mm 2 mps 742 mmHg 62%
    23:00 +23°C° 0 mm 2 mps 742 mmHg 63%
    Show more